GW5447 Weather Reports


time (UTC)temp
C
wind
direction
speed
KPH
gust
KPH
rain 1hr
cm
rain 24hr
cm
rain mn
cm
humidity
%
barometer
mb
20260508154748 15 313 4.8 4.8 0.00 0.00 0.00 50 1013.7
20260508154246 15 290 1.6 4.8 0.00 0.00 0.00 49 1013.5
20260508153742 15 258 1.6 3.2 0.00 0.00 0.00 50 1013.6
20260508153240 15 324 6.4 12.9 0.00 0.00 0.00 52 1013.4
20260508152736 15 215 0.0 3.2 0.00 0.00 0.00 55 1013.8
20260508152232 14 240 0.0 3.2 0.00 0.00 0.00 54 1013.6
20260508151728 14 201 0.0 0.0 0.00 0.00 0.00 60 1013.9
20260508151225 14 217 0.0 1.6 0.00 0.00 0.00 57 1013.8
20260508150722 14 192 0.0 3.2 0.00 0.00 0.00 59 1013.8
20260508150219 13 169 0.0 0.0 0.00 0.00 0.00 60 1014.1
20260508145715 13 223 0.0 0.0 0.00 0.00 0.00 62 1014.1
20260508145211 12 188 0.0 0.0 0.00 0.00 0.00 64 1014.2
20260508144708 12 179 0.0 0.0 0.00 0.00 0.00 63 1014.1
20260508144206 12 218 0.0 0.0 0.00 0.00 0.00 61 1014.1
20260508143703 12 197 0.0 0.0 0.00 0.00 0.00 64 1014.2
20260508143201 12 322 3.2 3.2 0.00 0.00 0.00 60 1014.1
20260508142656 12 204 0.0 0.0 0.00 0.00 0.00 61 1014.0
20260508142153 12 199 0.0 1.6 0.00 0.00 0.00 62 1014.0
20260508141649 12 234 0.0 1.6 0.00 0.00 0.00 60 1014.0
20260508141148 12 229 0.0 3.2 0.00 0.00 0.00 58 1014.0
20260508140645 12 144 0.0 1.6 0.00 0.00 0.00 61 1014.1
20260508140142 12 217 0.0 1.6 0.00 0.00 0.00 63 1014.0
20260508135637 12 240 0.0 1.6 0.00 0.00 0.00 61 1014.1
20260508135133 12 215 0.0 0.0 0.00 0.00 0.00 59 1014.0
20260508134630 12 200 0.0 1.6 0.00 0.00 0.00 62 1014.0
20260508134127 12 244 0.0 1.6 0.00 0.00 0.00 60 1014.1
20260508133624 12 182 0.0 1.6 0.00 0.00 0.00 63 1014.0
20260508133121 12 187 0.0 1.6 0.00 0.00 0.00 63 1013.9
20260508132619 12 287 1.6 1.6 0.00 0.00 0.00 59 1014.1
20260508132115 12 255 0.0 3.2 0.00 0.00 0.00 59 1013.8
20260508131611 12 308 1.6 6.4 0.00 0.00 0.00 58 1014.0
20260508131108 12 150 0.0 1.6 0.00 0.00 0.00 58 1014.0
20260508130604 12 249 0.0 3.2 0.00 0.00 0.00 60 1013.9
20260508125557 12 196 0.0 1.6 0.00 0.00 0.00 62 1014.2
20260508125055 11 61 1.6 1.6 0.00 0.00 0.00 64 1014.0
20260508124553 11 218 0.0 1.6 0.00 0.00 0.00 63 1013.8
20260508124049 11 216 0.0 4.8 0.00 0.00 0.00 68 1013.8
20260508123548 11 186 0.0 1.6 0.00 0.00 0.00 70 1013.8
20260508123044 10 189 0.0 1.6 0.00 0.00 0.00 72 1013.7
20260508122541 10 210 0.0 1.6 0.00 0.00 0.00 76 1013.7
20260508122038 10 146 0.0 0.0 0.00 0.00 0.00 79 1013.9
20260508121537 10 213 0.0 0.0 0.00 0.00 0.00 79 1013.9
20260508121034 9 172 0.0 0.0 0.00 0.00 0.00 82 1013.7
20260508120531 8 175 0.0 0.0 0.00 0.00 0.00 84 1013.8
20260508120029 8 198 0.0 0.0 0.00 0.00 0.00 86 1013.8
20260508115527 7 219 0.0 0.0 0.00 0.00 0.00 91 1013.8
20260508115023 7 159 0.0 0.0 0.00 0.00 0.00 95 1013.8
20260508114520 6 165 0.0 0.0 0.00 0.00 0.00 97 1013.8
20260508114016 6 168 0.0 0.0 0.00 0.00 0.00 97 1013.6
20260508113514 6 168 0.0 0.0 0.00 0.00 0.00 97 1013.6
20260508113011 6 162 0.0 0.0 0.00 0.00 0.00 98 1013.6
20260508112508 5 160 0.0 0.0 0.00 0.00 0.00 98 1013.6
20260508112004 5 159 0.0 0.0 0.00 0.00 0.00 98 1013.6
20260508111501 4 163 0.0 0.0 0.00 0.00 0.00 97 1013.6
20260508110958 4 161 0.0 0.0 0.00 0.00 0.00 97 1013.6
20260508110456 3 160 0.0 0.0 0.00 0.00 0.00 97 1013.5
20260508105956 3 167 0.0 0.0 0.00 0.00 0.00 97 1013.6
20260508105452 3 167 0.0 0.0 0.00 0.00 0.00 97 1013.4
20260508104950 3 167 0.0 0.0 0.00 0.00 0.00 97 1013.3
20260508104447 3 167 0.0 0.0 0.00 0.00 0.00 97 1013.4
20260508103943 3 167 0.0 0.0 0.00 0.00 0.00 97 1013.3
20260508103441 3 167 0.0 0.0 0.00 0.00 0.00 97 1013.3
20260508102937 3 167 0.0 0.0 0.00 0.00 0.00 97 1013.5
20260508102436 3 167 0.0 0.0 0.00 0.00 0.00 97 1013.3
20260508101933 3 167 0.0 0.0 0.00 0.00 0.00 97 1013.3
20260508101430 3 167 0.0 0.0 0.00 0.00 0.00 97 1013.2
20260508100927 3 167 0.0 0.0 0.00 0.00 0.00 96 1013.2
20260508100426 4 167 0.0 0.0 0.00 0.00 0.00 97 1013.0
20260508095922 4 167 0.0 0.0 0.00 0.00 0.00 97 1013.2
20260508095420 4 167 0.0 0.0 0.00 0.00 0.00 96 1013.2
20260508094916 4 167 0.0 0.0 0.00 0.00 0.00 96 1013.2
20260508094413 4 167 0.0 0.0 0.00 0.00 0.00 96 1013.3
20260508093910 4 167 0.0 0.0 0.00 0.00 0.00 96 1013.3
20260508093408 4 167 0.0 0.0 0.00 0.00 0.00 96 1013.3
20260508092905 4 167 0.0 0.0 0.00 0.00 0.00 96 1013.2
20260508092403 4 167 0.0 0.0 0.00 0.00 0.00 96 1013.3
20260508091901 5 167 0.0 0.0 0.00 0.00 0.00 96 1013.3
20260508091357 5 167 0.0 0.0 0.00 0.00 0.00 96 1013.3
20260508090855 5 167 0.0 0.0 0.00 0.00 0.00 96 1013.4
20260508090353 5 167 0.0 0.0 0.00 0.00 0.00 95 1013.3
20260508085848 5 167 0.0 0.0 0.00 0.00 0.00 95 1013.3
20260508085345 5 167 0.0 0.0 0.00 0.00 0.00 95 1013.4
20260508084842 5 167 0.0 0.0 0.00 0.00 0.00 95 1013.3
20260508084339 5 167 0.0 0.0 0.00 0.00 0.00 95 1013.4
20260508083837 5 167 0.0 0.0 0.00 0.00 0.00 95 1013.2
20260508083334 5 167 0.0 0.0 0.00 0.00 0.00 95 1013.4
20260508082833 5 167 0.0 0.0 0.00 0.00 0.00 95 1013.3
20260508082331 5 167 0.0 0.0 0.00 0.00 0.00 94 1013.2
20260508081828 5 167 0.0 0.0 0.00 0.00 0.00 94 1013.2
20260508081325 5 167 0.0 0.0 0.00 0.00 0.00 93 1013.2
20260508080822 5 167 0.0 0.0 0.00 0.00 0.00 93 1013.2
20260508080320 6 167 0.0 0.0 0.00 0.00 0.00 93 1013.2
20260508075816 6 167 0.0 0.0 0.00 0.00 0.00 93 1013.2
20260508075313 6 167 0.0 0.0 0.00 0.00 0.00 92 1013.4
20260508074811 6 167 0.0 0.0 0.00 0.00 0.00 92 1013.2
20260508074308 6 167 0.0 0.0 0.00 0.00 0.00 92 1013.4
20260508073805 6 165 0.0 0.0 0.00 0.00 0.00 91 1013.4
20260508073303 6 165 0.0 0.0 0.00 0.00 0.00 91 1013.4
20260508072759 7 165 0.0 0.0 0.00 0.00 0.00 90 1013.4
20260508072256 7 165 0.0 0.0 0.00 0.00 0.00 90 1013.5
20260508071753 7 165 0.0 0.0 0.00 0.00 0.00 89 1013.6
20260508071252 7 165 0.0 0.0 0.00 0.00 0.00 89 1013.7
20260508070748 7 165 0.0 0.0 0.00 0.00 0.00 89 1013.8
20260508070247 7 165 0.0 0.0 0.00 0.00 0.00 89 1014.0
20260508065744 7 165 0.0 0.0 0.00 0.00 0.00 88 1013.7
20260508065242 7 165 0.0 0.0 0.00 0.00 0.00 88 1013.7
20260508064740 8 164 0.0 0.0 0.00 0.00 0.00 87 1013.6
20260508064238 8 164 0.0 1.6 0.00 0.00 0.00 87 1013.8
20260508063734 8 176 0.0 0.0 0.00 0.00 0.00 86 1013.9
20260508063232 8 162 0.0 0.0 0.00 0.00 0.00 85 1014.1
20260508062729 8 161 0.0 0.0 0.00 0.00 0.00 84 1014.3
20260508062227 8 161 0.0 0.0 0.00 0.00 0.00 83 1014.2
20260508061724 8 131 0.0 1.6 0.00 0.00 0.00 83 1014.2
20260508061221 8 146 0.0 0.0 0.00 0.00 0.00 83 1014.2
20260508060717 8 118 0.0 0.0 0.00 0.00 0.00 85 1014.3
20260508060215 8 128 0.0 1.6 0.00 0.00 0.00 86 1014.2
20260508055710 8 232 0.0 0.0 0.00 0.00 0.00 87 1014.2
20260508055207 7 222 0.0 0.0 0.00 0.00 0.00 85 1014.0
20260508054704 7 222 0.0 0.0 0.00 0.00 0.00 85 1013.9
20260508054201 7 212 0.0 0.0 0.00 0.00 0.00 86 1013.7
20260508053658 7 207 0.0 0.0 0.00 0.00 0.00 86 1013.6
20260508053156 7 207 0.0 0.0 0.00 0.00 0.00 86 1013.7
20260508052653 7 207 0.0 0.0 0.00 0.00 0.00 86 1013.8
20260508052150 7 206 0.0 0.0 0.00 0.00 0.00 86 1013.7
20260508051646 7 207 0.0 0.0 0.00 0.00 0.00 86 1013.8
20260508051142 7 207 0.0 0.0 0.00 0.00 0.00 86 1013.8
20260508050638 7 206 0.0 0.0 0.00 0.00 0.00 86 1013.7
20260508050136 7 206 0.0 0.0 0.00 0.00 0.00 86 1013.7
20260508045631 7 207 0.0 0.0 0.00 0.00 0.00 85 1013.7
20260508045130 7 206 0.0 0.0 0.00 0.00 0.00 85 1013.8
20260508044626 7 206 0.0 0.0 0.00 0.00 0.00 85 1014.0
20260508044123 7 206 0.0 0.0 0.00 0.00 0.00 84 1014.0
20260508043619 7 206 0.0 0.0 0.00 0.00 0.00 84 1013.8
20260508043117 7 220 0.0 0.0 0.00 0.00 0.00 84 1013.8
20260508042613 7 215 0.0 0.0 0.00 0.00 0.00 85 1013.9
20260508042111 7 180 0.0 0.0 0.00 0.00 0.00 85 1013.8
20260508041607 6 180 0.0 0.0 0.00 0.00 0.00 85 1013.8
20260508041103 6 180 0.0 0.0 0.00 0.00 0.00 85 1013.8
20260508040600 6 180 0.0 0.0 0.00 0.00 0.00 84 1014.0
20260508040058 6 180 0.0 0.0 0.00 0.00 0.00 84 1013.9
20260508035555 6 180 0.0 0.0 0.00 0.00 0.00 83 1014.0
20260508035052 6 180 0.0 0.0 0.00 0.00 0.00 82 1013.9
20260508034549 6 180 0.0 0.0 0.00 0.00 0.00 81 1013.9
20260508034046 7 180 0.0 0.0 0.00 0.00 0.00 80 1013.9
20260508033543 7 180 0.0 0.0 0.00 0.00 0.00 80 1013.8
20260508033042 7 180 0.0 0.0 0.00 0.00 0.00 80 1013.8
20260508032538 7 179 0.0 0.0 0.00 0.00 0.00 80 1013.9
20260508032036 6 195 0.0 0.0 0.00 0.00 0.00 80 1014.0
20260508031533 6 196 0.0 0.0 0.00 0.00 0.00 80 1014.1
20260508031028 6 195 0.0 0.0 0.00 0.00 0.00 81 1013.8
20260508030525 6 195 0.0 0.0 0.00 0.00 0.00 81 1013.8
20260508030024 6 195 0.0 0.0 0.00 0.00 0.00 82 1013.8
20260508025519 6 195 0.0 0.0 0.00 0.00 0.00 81 1014.0
20260508025016 6 195 0.0 0.0 0.00 0.00 0.00 80 1014.0
20260508024512 6 195 0.0 0.0 0.00 0.00 0.00 79 1013.9
20260508024009 6 195 0.0 0.0 0.00 0.00 0.00 78 1013.8
20260508023506 6 195 0.0 0.0 0.00 0.00 0.00 78 1013.8
20260508023003 6 195 0.0 0.0 0.00 0.00 0.00 76 1013.9
20260508022458 6 195 0.0 0.0 0.00 0.00 0.00 74 1013.9
20260508021955 6 195 0.0 0.0 0.00 0.00 0.00 73 1013.8
20260508021452 7 195 0.0 0.0 0.00 0.00 0.00 73 1013.6
20260508020947 7 195 0.0 0.0 0.00 0.00 0.00 71 1013.7
20260508020446 7 195 0.0 0.0 0.00 0.00 0.00 71 1013.8
20260508015942 7 195 0.0 0.0 0.00 0.00 0.00 71 1014.0
20260508015440 7 195 0.0 0.0 0.00 0.00 0.00 70 1014.0
20260508014937 7 195 0.0 0.0 0.00 0.00 0.00 69 1014.0
20260508014434 7 195 0.0 0.0 0.00 0.00 0.00 68 1013.9
20260508013929 7 195 0.0 0.0 0.00 0.00 0.00 68 1013.8
20260508013426 7 195 0.0 0.0 0.00 0.00 0.00 66 1013.7
20260508012923 7 195 0.0 0.0 0.00 0.00 0.00 65 1013.7
20260508012420 8 195 0.0 0.0 0.00 0.00 0.00 65 1013.8
20260508011917 8 195 0.0 0.0 0.00 0.00 0.00 63 1013.8
20260508011415 8 195 0.0 0.0 0.00 0.00 0.00 63 1013.5
20260508010912 8 195 0.0 0.0 0.00 0.00 0.00 63 1013.6
20260508010409 8 195 0.0 0.0 0.00 0.00 0.00 62 1013.6
20260508005906 9 195 0.0 0.0 0.00 0.00 0.00 61 1013.5
20260508005403 9 195 0.0 0.0 0.00 0.00 0.00 59 1013.5
20260508004859 10 195 0.0 0.0 0.00 0.00 0.00 56 1013.5
20260508004355 10 195 0.0 0.0 0.00 0.00 0.00 58 1013.4
20260508003852 10 196 0.0 0.0 0.00 0.00 0.00 57 1013.5
20260508003349 10 196 0.0 0.0 0.00 0.00 0.00 56 1013.6
20260508002847 11 196 0.0 0.0 0.00 0.00 0.00 54 1013.3
20260508002343 11 196 0.0 0.0 0.00 0.00 0.00 53 1013.6
20260508001839 11 196 0.0 0.0 0.00 0.00 0.00 53 1013.3
20260508001335 12 196 0.0 0.0 0.00 0.00 0.00 53 1013.2
20260508000832 12 195 0.0 0.0 0.00 0.00 0.00 49 1013.1
20260508000328 12 198 0.0 0.0 0.00 0.00 0.00 46 1013.2
20260507235825 13 200 0.0 1.6 0.00 0.00 0.00 49 1013.1
20260507235323 13 198 0.0 0.0 0.00 0.00 0.00 47 1013.2
20260507234819 13 240 1.6 3.2 0.00 0.00 0.00 39 1013.0
20260507234316 14 198 0.0 0.0 0.00 0.00 0.00 45 1013.1
20260507233812 14 348 1.6 3.2 0.00 0.00 0.00 38 1013.1
20260507233310 14 313 0.0 1.6 0.00 0.00 0.00 39 1013.1
20260507232808 14 323 4.8 4.8 0.00 0.00 0.00 37 1012.8
20260507232306 15 349 0.0 4.8 0.00 0.00 0.00 37 1013.1
20260507231801 15 29 1.6 3.2 0.00 0.00 0.00 38 1013.0
20260507231258 15 338 1.6 3.2 0.00 0.00 0.00 37 1012.9
20260507230754 15 288 1.6 3.2 0.00 0.00 0.00 37 1013.0
20260507230252 15 301 1.6 3.2 0.00 0.00 0.00 36 1013.0
20260507225751 15 29 0.0 4.8 0.00 0.00 0.00 36 1013.1
20260507225248 15 292 3.2 6.4 0.00 0.00 0.00 36 1013.2
20260507224744 15 58 4.8 6.4 0.00 0.00 0.00 37 1013.1
20260507224241 15 286 3.2 6.4 0.00 0.00 0.00 37 1013.2
20260507223737 15 276 3.2 4.8 0.00 0.00 0.00 39 1013.2
20260507223234 15 305 0.0 4.8 0.00 0.00 0.00 37 1013.3
20260507222730 16 278 3.2 6.4 0.00 0.00 0.00 35 1013.2
20260507222227 16 14 4.8 11.3 0.00 0.00 0.00 34 1013.3
20260507221724 16 241 3.2 3.2 0.00 0.00 0.00 36 1013.1
20260507221220 16 299 3.2 6.4 0.00 0.00 0.00 37 1013.2
20260507220716 15 290 3.2 4.8 0.00 0.00 0.00 37 1013.3
20260507220215 15 247 1.6 9.7 0.00 0.00 0.00 36 1013.4
20260507215711 15 277 1.6 4.8 0.00 0.00 0.00 38 1013.2
20260507215209 14 266 1.6 6.4 0.00 0.00 0.00 36 1013.2
20260507214706 15 241 6.4 12.9 0.00 0.00 0.00 36 1013.2
20260507214203 15 348 3.2 11.3 0.00 0.00 0.00 35 1013.1
20260507213658 16 301 4.8 9.7 0.00 0.00 0.00 35 1013.3
20260507213155 16 5 3.2 6.4 0.00 0.00 0.00 34 1013.0
20260507212651 16 275 1.6 6.4 0.00 0.00 0.00 34 1013.0
20260507212148 16 308 4.8 9.7 0.00 0.00 0.00 35 1013.1
20260507211645 16 66 4.8 6.4 0.00 0.00 0.00 34 1013.1
20260507211140 16 4 4.8 12.9 0.00 0.00 0.00 34 1013.1
20260507210638 16 256 1.6 4.8 0.00 0.00 0.00 35 1012.9
20260507210135 16 229 4.8 11.3 0.00 0.00 0.00 35 1012.9
20260507205631 15 273 6.4 6.4 0.00 0.00 0.00 38 1012.9
20260507205128 15 262 9.7 14.5 0.00 0.00 0.00 38 1012.9
20260507204624 15 236 8.0 11.3 0.00 0.00 0.00 38 1013.0
20260507204122 15 247 8.0 12.9 0.00 0.00 0.00 38 1012.9
20260507203620 15 224 6.4 17.7 0.00 0.00 0.00 37 1012.9
20260507203117 15 271 3.2 9.7 0.00 0.00 0.00 37 1013.0
20260507202612 16 230 4.8 11.3 0.00 0.00 0.00 37 1012.8
20260507202109 15 97 4.8 9.7 0.00 0.00 0.00 40 1012.9
20260507201604 15 273 3.2 11.3 0.00 0.00 0.00 40 1013.0
20260507201101 15 260 8.0 16.1 0.00 0.00 0.00 36 1013.1
20260507200556 15 27 8.0 12.9 0.00 0.00 0.00 38 1013.2
20260507200053 15 260 3.2 14.5 0.00 0.00 0.00 36 1013.0
20260507195550 15 292 6.4 9.7 0.00 0.00 0.00 35 1013.0
20260507195048 15 308 1.6 17.7 0.00 0.00 0.00 37 1013.1
20260507194543 15 313 6.4 16.1 0.00 0.00 0.00 38 1013.2
20260507194040 15 240 3.2 14.5 0.00 0.00 0.00 40 1012.9
20260507193537 15 149 1.6 9.7 0.00 0.00 0.00 37 1013.1
20260507193034 15 3 6.4 12.9 0.00 0.00 0.00 38 1013.2
20260507192530 16 302 3.2 6.4 0.00 0.00 0.00 37 1012.8
20260507192027 17 270 4.8 9.7 0.00 0.00 0.00 38 1013.1
20260507191522 17 137 1.6 3.2 0.00 0.00 0.00 37 1013.0
20260507191020 16 313 3.2 4.8 0.00 0.00 0.00 39 1013.0
20260507190517 16 358 4.8 6.4 0.00 0.00 0.00 40 1013.1
20260507190016 16 347 1.6 4.8 0.00 0.00 0.00 38 1013.1
20260507185513 16 234 3.2 17.7 0.00 0.00 0.00 40 1013.2
20260507185010 15 300 6.4 9.7 0.00 0.00 0.00 40 1013.2
20260507184508 15 297 9.7 12.9 0.00 0.00 0.00 40 1013.3
20260507184006 16 286 9.7 16.1 0.00 0.00 0.00 38 1013.5
20260507183501 15 278 4.8 6.4 0.00 0.00 0.00 39 1013.4
20260507182959 16 274 4.8 12.9 0.00 0.00 0.00 40 1013.5
20260507182455 16 272 1.6 12.9 0.00 0.00 0.00 40 1013.4
20260507181951 15 279 8.0 11.3 0.00 0.00 0.00 41 1013.3
20260507181448 15 272 3.2 4.8 0.00 0.00 0.00 41 1013.3
20260507180944 15 222 0.0 3.2 0.00 0.00 0.00 39 1013.3
20260507180441 15 105 3.2 9.7 0.00 0.00 0.00 42 1013.4
20260507175937 15 278 1.6 6.4 0.00 0.00 0.00 42 1013.2
20260507175434 15 284 3.2 9.7 0.00 0.00 0.00 39 1013.5
20260507174932 15 343 6.4 11.3 0.00 0.00 0.00 38 1013.4
20260507174428 15 22 3.2 9.7 0.00 0.00 0.00 41 1013.4
20260507173926 15 299 4.8 6.4 0.00 0.00 0.00 45 1013.6
20260507173423 15 261 3.2 9.7 0.00 0.00 0.00 42 1013.7
20260507172919 15 205 1.6 4.8 0.00 0.00 0.00 43 1013.7
20260507172416 15 276 1.6 9.7 0.00 0.00 0.00 41 1013.7
20260507171912 15 288 4.8 11.3 0.00 0.00 0.00 41 1013.9
20260507171409 15 31 3.2 17.7 0.00 0.00 0.00 43 1014.1
20260507170906 15 80 3.2 9.7 0.00 0.00 0.00 40 1013.8
20260507170402 15 259 1.6 9.7 0.00 0.00 0.00 41 1014.1
20260507165859 15 312 3.2 6.4 0.00 0.00 0.00 43 1014.3
20260507165354 15 230 3.2 11.3 0.00 0.00 0.00 42 1014.0
20260507164850 15 239 3.2 6.4 0.00 0.00 0.00 44 1013.9
20260507164348 15 323 1.6 4.8 0.00 0.00 0.00 45 1014.3
20260507163845 13 213 0.0 3.2 0.00 0.00 0.00 45 1014.2
20260507163342 14 327 9.7 14.5 0.00 0.00 0.00 40 1014.3
20260507162839 15 181 0.0 3.2 0.00 0.00 0.00 43 1014.2
20260507162334 14 308 1.6 4.8 0.00 0.00 0.00 43 1014.2
20260507161832 13 260 4.8 6.4 0.00 0.00 0.00 41 1014.2
20260507161328 13 234 1.6 6.4 0.00 0.00 0.00 39 1014.1
20260507160825 13 246 1.6 12.9 0.00 0.00 0.00 41 1014.2
20260507160321 13 321 1.6 6.4 0.00 0.00 0.00 43 1014.2
20260507155817 13 268 6.4 12.9 0.00 0.00 0.00 40 1014.1
20260507155313 13 312 3.2 11.3 0.00 0.00 0.00 43 1014.0